Date String (YYYY-MM-DD hh:mm:ss) UTC,Instrument flags,Ambient pressure (hPa),Sample flow (lpm),Bypass flow (lpm),Sample temperature (°C),Ambient temperature (°C),ASC tube jacket temperature (°C),LED temperature (°C),Box temperature (°C),Sample RH (%),Span deviation,Mass concentration (μg/m³),Mass concentration (μg/m³),Mass concentration (μg/m³)
DateTimeUTC,F1_M11,P_M11,Q1_M11,Q2_M11,T1_M11,T2_M11,T3_M11,T4_M11,T5_M11,U1_M11,ZSPAN_M11,X2_M11,X0_M11,X1_M11
2023-01-08 16:00:00,,0827.4,5.00,0.00,22.3,20.5,00.0,31.3,23.8,08.4,0000.0,0002.49,0003.15,0002.41
2023-01-08 16:01:00,,0827.4,5.01,0.00,22.2,20.6,00.0,31.2,23.9,08.6,0000.0,0002.53,0003.20,0002.45
2023-01-08 16:02:00,,0827.4,5.00,0.00,22.2,20.6,00.0,31.2,23.9,08.2,0000.0,0002.52,0003.12,0002.46
2023-01-08 16:03:00,,0827.4,5.00,0.00,22.2,20.6,00.0,31.2,23.9,07.5,0000.0,0002.39,0002.96,0002.33
2023-01-08 16:04:00,,0827.4,5.00,0.00,22.2,20.6,00.0,31.2,23.9,07.4,0000.0,0002.21,0002.75,0002.15
2023-01-08 16:05:00,,0827.4,5.00,0.00,22.2,20.6,00.0,31.2,23.8,07.9,0000.0,0002.25,0002.79,0002.19
2023-01-08 16:06:00,,0827.4,4.99,0.00,22.1,20.5,00.0,31.1,23.8,07.6,0000.0,0002.31,0002.89,0002.23
2023-01-08 16:07:00,,0827.4,5.00,0.00,22.1,20.6,00.0,31.1,23.8,07.5,0000.0,0002.21,0002.76,0002.13
2023-01-08 16:08:00,,0827.4,5.01,0.00,22.2,21.7,00.0,31.1,24.0,07.4,0000.0,0002.03,0002.53,0001.94
2023-01-08 16:09:00,,0827.3,4.99,0.00,22.3,22.7,00.0,31.1,24.3,07.4,0000.0,0001.85,0002.31,0001.76
2023-01-08 16:10:00,,0827.3,4.99,0.00,22.4,22.6,00.0,31.1,24.4,07.0,0000.0,0001.68,0002.10,0001.59
2023-01-08 16:11:00,,0827.2,5.00,0.00,22.4,22.3,00.0,31.2,24.3,06.9,0000.0,0001.51,0001.86,0001.43
2023-01-08 16:12:00,,0827.3,5.01,0.00,22.4,21.9,00.0,31.2,24.3,06.8,0000.0,0001.33,0001.64,0001.24
2023-01-08 16:13:00,,0827.2,5.00,0.00,22.4,21.7,00.0,31.2,24.2,06.8,0000.0,0001.17,0001.46,0001.08
2023-01-08 16:14:00,,0827.4,5.00,0.00,22.4,21.6,00.0,31.2,24.2,06.7,0000.0,0001.09,0001.37,0001.00
2023-01-08 16:15:00,,0827.5,4.99,0.00,22.4,21.5,00.0,31.2,24.2,06.6,0000.0,0001.07,0001.35,0000.97
2023-01-08 16:16:00,,0827.5,5.00,0.00,22.4,21.3,00.0,31.2,24.1,07.5,0000.0,0001.04,0001.59,0000.93
2023-01-08 16:17:00,,0827.5,5.01,0.00,22.4,21.2,00.0,31.2,24.0,09.8,0000.0,0001.18,0001.83,0001.08
2023-01-08 16:18:00,,0827.4,5.00,0.00,22.4,21.0,00.0,31.2,24.0,09.9,0000.0,0001.52,0002.28,0001.43
2023-01-08 16:19:00,,0827.4,5.00,0.00,22.4,21.0,00.0,31.2,24.0,09.9,0000.0,0001.92,0002.82,0001.82
2023-01-08 16:20:00,,0827.5,5.03,0.00,22.4,21.0,00.0,31.2,24.0,09.7,0000.0,0002.06,0003.00,0001.96
2023-01-08 16:21:00,,0827.6,5.00,0.00,22.3,21.0,00.0,31.2,24.0,08.3,0000.0,0002.15,0003.14,0002.04
2023-01-08 16:22:00,,0827.7,5.00,0.00,22.3,20.8,00.0,31.2,23.9,09.7,0000.0,0002.50,0003.65,0002.39
2023-01-08 16:23:00,,0827.6,5.01,0.00,22.2,20.5,00.0,31.2,23.8,10.2,0000.0,0003.04,0004.39,0002.90
2023-01-08 16:24:00,,0827.6,5.00,0.00,22.2,20.3,00.0,31.2,23.6,10.2,0001.1,0003.36,0005.14,0003.26
2023-01-08 16:25:00,,0827.6,5.00,0.00,22.1,20.2,00.0,31.2,23.6,10.2,0003.3,0003.63,0005.74,0003.53
2023-01-08 16:26:00,,0827.7,5.00,0.00,22.1,20.1,00.0,31.1,23.6,10.3,0003.3,0003.92,0006.50,0003.80
2023-01-08 16:27:00,,0827.7,5.00,0.00,22.1,20.2,00.0,31.1,23.6,10.3,0003.1,0004.22,0007.29,0004.09
2023-01-08 16:28:00,,0827.7,4.99,0.00,22.0,20.2,00.0,31.1,23.6,10.4,0003.1,0004.49,0007.55,0004.36
2023-01-08 16:29:00,,0827.6,4.99,0.00,22.0,20.2,00.0,31.1,23.6,10.4,0003.1,0004.62,0007.67,0004.49
2023-01-08 16:30:00,,0827.5,4.99,0.00,22.0,21.0,00.0,31.0,23.7,09.3,0003.5,0004.59,0007.63,0004.46
2023-01-08 16:31:00,,0827.5,4.99,0.00,22.2,22.3,00.0,31.0,24.1,07.8,0004.1,0004.41,0007.39,0004.28
2023-01-08 16:32:00,,0827.5,4.98,0.00,22.3,22.6,00.0,31.0,24.2,07.5,0004.0,0004.28,0007.13,0004.15
2023-01-08 16:33:00,,0827.5,5.00,0.00,22.3,22.3,00.0,31.1,24.2,07.7,0004.1,0004.11,0006.67,0003.99
2023-01-08 16:34:00,,0827.5,5.01,0.00,22.3,21.9,00.0,31.1,24.2,07.7,0004.1,0003.86,0006.10,0003.74
2023-01-08 16:35:00,,0827.5,4.99,0.00,22.3,21.7,00.0,31.1,24.2,07.7,0003.8,0003.65,0005.50,0003.54
2023-01-08 16:36:00,,0827.5,5.00,0.00,22.3,21.6,00.0,31.1,24.1,07.4,0003.0,0003.42,0004.97,0003.32
2023-01-08 16:37:00,,0827.4,4.99,0.00,22.4,21.5,00.0,31.1,24.2,06.8,0002.7,0003.11,0004.25,0003.00
2023-01-08 16:38:00,,0827.4,5.00,0.00,22.4,21.4,00.0,31.2,24.2,06.6,0001.1,0002.61,0003.42,0002.49
2023-01-08 16:39:00,,0827.4,5.00,0.00,22.4,21.4,00.0,31.2,24.2,06.6,0000.0,0002.09,0002.71,0001.98
2023-01-08 16:40:00,,0827.4,5.00,0.00,22.4,21.4,00.0,31.2,24.2,06.6,0000.0,0001.61,0002.09,0001.51
2023-01-08 16:41:00,,0827.4,5.00,0.00,22.4,21.4,00.0,31.2,24.2,06.9,0000.0,0001.27,0001.68,0001.17
2023-01-08 16:42:00,,0827.4,5.00,0.00,22.4,21.4,00.0,31.2,24.2,07.3,0000.0,0001.18,0001.61,0001.07
2023-01-08 16:43:00,,0827.5,5.00,0.00,22.4,21.3,00.0,31.2,24.2,06.7,0000.0,0001.15,0001.62,0001.03
2023-01-08 16:44:00,,0827.4,5.00,0.00,22.4,21.3,00.0,31.2,24.2,06.5,0000.0,0001.09,0001.58,0000.97
2023-01-08 16:45:00,,0827.4,4.98,0.00,22.4,21.3,00.0,31.2,24.2,06.5,0000.0,0001.00,0001.41,0000.89
2023-01-08 16:46:00,,0827.3,4.99,0.00,22.4,21.3,00.0,31.2,24.2,06.4,0000.0,0000.88,0001.24,0000.80
2023-01-08 16:47:00,,0827.3,4.99,0.00,22.4,21.3,00.0,31.2,24.2,06.4,0000.0,0000.79,0001.14,0000.70
2023-01-08 16:48:00,,0827.2,5.00,0.00,22.4,21.3,00.0,31.2,24.3,06.3,0000.0,0000.77,0001.13,0000.67
2023-01-08 16:49:00,,0827.2,5.01,0.00,22.5,21.3,00.0,31.2,24.3,06.2,0000.0,0000.78,0001.15,0000.67
2023-01-08 16:50:00,,0827.2,5.02,0.00,22.5,21.3,00.0,31.3,24.3,06.0,0000.0,0000.77,0001.14,0000.66
2023-01-08 16:51:00,,0827.1,5.01,0.00,22.5,21.3,00.0,31.3,24.2,06.1,0000.0,0000.75,0001.13,0000.64
2023-01-08 16:52:00,,0827.1,4.99,0.00,22.5,21.2,00.0,31.3,24.2,06.2,0000.0,0000.72,0001.07,0000.62
2023-01-08 16:53:00,,0827.1,4.99,0.00,22.4,21.2,00.0,31.3,24.2,06.3,0000.0,0000.69,0000.98,0000.60
2023-01-08 16:54:00,,0827.2,5.00,0.00,22.4,21.2,00.0,31.3,24.2,06.4,0000.0,0000.66,0000.87,0000.59
2023-01-08 16:55:00,,0827.1,5.00,0.00,22.4,21.1,00.0,31.3,24.2,06.5,0000.0,0000.66,0000.85,0000.59
2023-01-08 16:56:00,,0827.1,5.00,0.00,22.4,21.2,00.0,31.3,24.2,06.4,0000.0,0000.68,0000.88,0000.60
2023-01-08 16:57:00,,0827.1,5.01,0.00,22.4,21.2,00.0,31.3,24.2,06.4,0000.0,0000.67,0000.87,0000.60
2023-01-08 16:58:00,,0827.2,5.01,0.00,22.4,21.1,00.0,31.3,24.2,06.4,0000.0,0000.67,0000.87,0000.60
2023-01-08 16:59:00,,0827.2,5.00,0.00,22.4,21.1,00.0,31.3,24.1,06.7,0000.0,0000.68,0000.85,0000.61
